#timestamp,LO_Frequency,Hit,StdDev 
1569488415.9,286046998.6,N
1569488435.7,286046999.3,N
1569488455.6,286046999.2,N
1569488475.4,286047000.8,N
1569488495.2,286047000.8,N
1569488515.1,286047000.5,N
1569488516.0,286047000.5,N
1569488535.8,286047000.1,N
1569488555.7,286047000.6,N
1569488575.5,286047000.3,N
1569488595.3,286047001.9,N
1569488615.5,286047001.6,N
1569488635.3,286047002.3,N
1569488655.2,286047000.8,N
1569488675.9,286047001.2,N
1569488695.7,286047001.2,N
1569488715.6,286047000.1,N
1569488735.4,286047000.1,N
1569488755.2,286047002.6,N
1569488775.1,286047002.2,N
1569488776.0,286047002.2,N
1569488795.8,286046999.7,N
1569488815.7,286047000.4,N
1569488835.5,286047000.5,N
1569488855.3,286047000.3,N
1569488875.2,286046998.2,N
1569488895.0,286046999.8,N
1569488895.9,286046999.8,N
1569488915.7,286047001.9,N
1569488935.6,286047004.0,Y
1569488955.4,286047002.7,P
1569488975.3,286047000.0,N
1569488995.1,286047000.9,N
1569489015.8,286047000.2,N
1569489035.7,286047001.9,N
1569489055.5,286047001.0,N
1569489075.4,286046998.3,N
1569489095.2,286046998.4,N
1569489115.0,286047000.8,N
1569489115.9,286047000.8,N
1569489135.8,286046999.1,N
1569489155.6,286046999.1,N
1569489175.5,286046998.3,N
1569489195.3,286046998.8,N
1569489215.1,286046998.9,N
1569489235.9,286047000.8,N
1569489255.7,286046999.9,N
1569489275.5,286047000.9,N
1569489295.4,286046999.7,N
1569489315.2,286047002.6,N
1569489335.1,286047002.6,N
1569489336.0,286047002.6,N
1569489355.8,286047002.4,N
1569489375.6,286047001.6,N
1569489395.5,286046999.8,N
1569489415.3,286047002.8,N
1569489435.1,286047000.5,N
1569489455.9,286046998.3,N
1569489475.7,286046998.4,N
1569489495.6,286046998.4,N
1569489515.4,286047002.8,N
1569489535.2,286047002.0,N
1569489555.1,286047002.3,N
1569489556.0,286047002.3,N
1569489575.8,286047001.8,N
1569489595.7,286047003.2,N
1569489615.5,286047001.4,N
1569489635.3,286047004.0,N
1569489655.2,286047003.4,N
1569489675.0,286047003.7,N
1569489675.9,286047003.7,N
1569489695.7,286047003.1,N
1569489715.6,286047004.3,N
1569489735.4,286047003.3,N
1569489755.3,286047003.6,N
1569489775.1,286047001.8,N
1569489776.0,286047001.8,N
1569489795.8,286047001.4,N
1569489815.7,286047003.2,N
1569489835.5,286047005.7,Y
1569489855.4,286047004.4,P
1569489875.2,286047002.0,N
1569489895.0,286047001.7,N
1569489895.9,286047001.7,N
1569489915.8,286047002.1,N
1569489935.6,286046998.2,N
1569489955.4,286046998.1,N
1569489975.3,286047000.9,N
1569489995.1,286047001.2,N
1569490015.9,286047000.8,N
1569490035.7,286046998.1,N
1569490055.5,286047001.1,N
1569490075.5,286047001.0,N
1569490095.3,286047000.7,N
1569490115.2,286047000.7,N
1569490135.9,286047000.5,N
1569490155.7,286047000.7,N
1569490175.6,286047001.2,N
1569490195.4,286046999.2,N
1569490215.3,286046999.5,N
1569490235.1,286046996.9,N
1569490236.0,286046996.9,N
1569490255.8,286046999.2,N
1569490275.7,286046998.3,N
1569490295.5,286046998.4,N
1569490315.3,286046998.1,N
1569490335.2,286047000.7,N
1569490355.0,286047000.9,N
1569490355.9,286047000.9,N
1569490375.8,286047000.1,N
1569490395.6,286047002.0,N
1569490415.4,286046999.7,N
1569490435.3,286047002.5,N
1569490455.1,286047001.4,N
1569490475.9,286046999.9,N
1569490495.7,286047000.3,N
1569490515.5,286047000.9,N
1569490535.4,286047001.1,N
1569490555.2,286047001.1,N
1569490575.0,286047000.8,N
1569490575.9,286047000.8,N
1569490595.8,286046999.9,N
1569490615.6,286047000.7,N
1569490635.5,286047000.5,N
1569490655.3,286047000.1,N
1569490675.1,286047000.1,N
1569490695.9,286047000.5,N
1569490715.7,286046999.9,N
1569490735.6,286047000.4,N
1569490755.4,286047002.6,N
1569490775.2,286047000.9,N
1569490795.1,286047000.7,N
1569490796.0,286047000.7,N
1569490815.8,286047000.0,N
1569490835.7,286047000.9,N
1569490855.5,286047001.2,N
1569490875.3,286047001.1,N
1569490895.2,286046998.1,N
1569490915.9,286047000.8,N
1569490935.7,286047000.5,N
1569490955.6,286046999.8,N
1569490975.4,286047002.2,N
1569490995.3,286047002.2,N
1569491015.1,286047004.0,Y
1569491035.8,286047002.2,P
1569491055.7,286047001.7,N
1569491075.5,286047004.2,P
1569491095.4,286047005.3,Y
1569491115.2,286047003.8,P
1569491135.0,286047003.5,P
1569491135.9,286047003.5,P
1569491155.8,286047012.2,Y
1569491175.6,286047009.8,P
1569491195.5,286047009.8,N
1569491215.3,286047007.9,N
1569491235.1,286047006.1,N
1569491255.9,286047004.5,N
1569491275.7,286047005.9,N
1569491295.6,286047001.5,N
1569491315.4,286047001.8,N
1569491335.2,286047002.7,N
1569491355.1,286047004.4,N
1569491356.0,286047004.4,N
1569491375.8,286047001.4,N
1569491395.7,286047004.0,N
1569491415.5,286047003.9,N
1569491435.3,286047003.9,N
1569491455.2,286047004.4,N
1569491475.9,286047002.1,N
1569491495.7,286047001.3,N
1569491515.6,286047002.5,N
1569491535.4,286047000.2,N
1569491555.3,286047000.2,N
1569491575.1,286047002.5,N
1569491576.0,286047002.5,N
1569491595.9,286047002.8,N
1569491615.7,286046999.9,N
1569491635.5,286046998.8,N
1569491655.4,286047001.1,N
1569491675.2,286047001.2,N
1569491695.0,286047001.1,N
1569491695.9,286047001.1,N
1569491715.8,286046998.9,N
1569491735.6,286046999.6,N
1569491755.5,286046998.8,N
1569491775.3,286046999.2,N
1569491795.1,286046999.1,N
1569491815.9,286046997.7,N
1569491835.7,286046996.5,N
1569491855.6,286046998.9,N
1569491875.4,286046999.5,N
1569491895.2,286046999.4,N
1569491915.1,286046996.5,N
1569491916.0,286046996.5,N
1569491935.8,286046997.2,N
1569491955.6,286046997.2,N
1569491975.5,286046999.6,N
1569491995.3,286046997.5,N
